This is the latest recevied weather packets stored in our database for station/object KD7AWQ. If no packets are shown the sender has not sent any weather packets the latest 10 day(s).
| Time | Temp. | Humidity | Pressure | Rain* | Wind** | Luminosity | Snow |
|---|---|---|---|---|---|---|---|
| 1787673981 | 33.89° C | 21% | 1190 hPa | 0 mm | - | 618 W/m² | - |
| 1787673676 | 33.33° C | 22% | 1190 hPa | 0 mm | - | 600 W/m² | - |
| 1787673376 | 33.33° C | 21% | 1190.1 hPa | 0 mm | - | 579 W/m² | - |
| 1787673070 | 33.89° C | 21% | 1189.9 hPa | 0 mm | - | 560 W/m² | - |
| 1787672764 | 33.89° C | 20% | 1190 hPa | 0 mm | - | 538 W/m² | - |
| 1787672460 | 33.89° C | 21% | 1189.9 hPa | 0 mm | - | 519 W/m² | - |
| 1787672159 | 33.89° C | 21% | 1189.7 hPa | 0 mm | - | 498 W/m² | - |
| 1787671854 | 33.89° C | 21% | 1190.1 hPa | 0 mm | - | 478 W/m² | - |
| 1787671550 | 33.33° C | 21% | 1189.7 hPa | 0 mm | - | 455 W/m² | - |
| 1787671244 | 32.78° C | 22% | 1190 hPa | 0 mm | - | 434 W/m² | - |
| 1787670939 | 32.78° C | 23% | 1190 hPa | 0 mm | - | 416 W/m² | - |
| 1787670635 | 32.78° C | 22% | 1190 hPa | 0 mm | - | 392 W/m² | - |
| 1787670334 | 32.78° C | 22% | 1190 hPa | 0 mm | - | 95 W/m² | - |
| 1787670030 | 32.78° C | 22% | 1189.9 hPa | 0 mm | - | 341 W/m² | - |
| 1787669724 | 32.78° C | 22% | 1190.1 hPa | 0 mm | - | 321 W/m² | - |
| 1787669421 | 32.22° C | 23% | 1190 hPa | 0 mm | - | 299 W/m² | - |
| 1787669115 | 31.67° C | 24% | 1190 hPa | 0 mm | - | 272 W/m² | - |
| 1787668810 | 31.67° C | 24% | 1190.4 hPa | 0 mm | - | 256 W/m² | - |
| 1787668507 | 31.67° C | 24% | 1190.1 hPa | 0 mm | - | 237 W/m² | - |
| 1787668202 | 31.11° C | 24% | 1189.8 hPa | 0 mm | - | 217 W/m² | - |
| 1787667896 | 30.56° C | 25% | 1190 hPa | 0 mm | - | 197 W/m² | - |
| 1787667592 | 30.56° C | 25% | 1190 hPa | 0 mm | - | 144 W/m² | - |
| 1787667288 | 30.56° C | 25% | 1189.9 hPa | 0 mm | - | 160 W/m² | - |
| 1787666987 | 30° C | 26% | 1189.7 hPa | 0 mm | - | 143 W/m² | - |
| 1787666683 | 30° C | 26% | 1189.9 hPa | 0 mm | - | 126 W/m² | - |
* Rain latest hour (hover to see other rain measurements)
** Current wind speed in m/s (hover to see current wind gust speed)